TimeCDT,TemperatureF,Dew PointF,Humidity,Sea Level PressureIn,VisibilityMPH,Wind Direction,Wind SpeedMPH,Gust SpeedMPH,PrecipitationIn,Events,Conditions,WindDirDegrees,DateUTC
12:15 AM,71.2,66.6,85,29.96,10.0,South,6.9,-,N/A,,Clear,180,2013-08-20 05:15:00
12:35 AM,71.1,66.6,86,29.96,10.0,South,6.9,-,N/A,,Clear,180,2013-08-20 05:35:00
12:55 AM,70.7,66.7,87,29.96,10.0,South,5.8,-,N/A,,Clear,180,2013-08-20 05:55:00
1:15 AM,70.0,66.6,89,29.96,10.0,South,6.9,-,N/A,,Clear,180,2013-08-20 06:15:00
1:35 AM,69.8,66.6,89,29.96,10.0,South,8.1,-,N/A,,Clear,190,2013-08-20 06:35:00
1:55 AM,69.3,66.4,91,29.96,10.0,South,6.9,-,N/A,,Clear,190,2013-08-20 06:55:00
2:15 AM,69.1,66.4,91,29.96,10.0,South,8.1,-,N/A,,Clear,190,2013-08-20 07:15:00
2:35 AM,68.9,66.4,92,29.96,10.0,South,8.1,-,N/A,,Clear,190,2013-08-20 07:35:00
2:55 AM,68.5,66.2,92,29.96,10.0,South,8.1,-,N/A,,Clear,190,2013-08-20 07:55:00
3:15 AM,68.5,66.2,92,29.96,10.0,South,8.1,-,N/A,,Clear,190,2013-08-20 08:15:00
3:35 AM,68.2,66.2,93,29.96,10.0,SSW,9.2,-,N/A,,Clear,200,2013-08-20 08:35:00
3:55 AM,68.0,66.2,94,29.96,7.0,SSW,10.4,-,N/A,,Clear,200,2013-08-20 08:55:00
4:15 AM,68.0,66.2,94,29.96,7.0,SSW,9.2,-,N/A,,Clear,200,2013-08-20 09:15:00
4:35 AM,68.4,66.2,93,29.96,10.0,SSW,10.4,-,N/A,,Clear,200,2013-08-20 09:35:00
4:55 AM,68.5,66.4,93,29.96,7.0,SSW,11.5,-,N/A,,Clear,200,2013-08-20 09:55:00
5:15 AM,68.2,66.4,94,29.96,7.0,SSW,10.4,16.1,N/A,,Clear,200,2013-08-20 10:15:00
5:35 AM,68.0,66.4,95,29.96,7.0,SSW,11.5,-,N/A,,Clear,200,2013-08-20 10:35:00
5:55 AM,67.6,66.4,96,29.96,7.0,SSW,9.2,-,N/A,,Clear,200,2013-08-20 10:55:00
6:15 AM,67.5,66.4,96,29.96,7.0,SSW,10.4,-,N/A,,Clear,200,2013-08-20 11:15:00
6:35 AM,67.3,66.4,97,29.96,7.0,SSW,10.4,-,N/A,,Clear,200,2013-08-20 11:35:00
6:55 AM,67.3,66.4,97,29.96,7.0,SSW,13.8,17.3,N/A,,Clear,200,2013-08-20 11:55:00
7:15 AM,67.3,66.4,97,29.96,5.0,SSW,10.4,-,N/A,,Clear,200,2013-08-20 12:15:00
7:35 AM,67.8,66.6,96,29.96,5.0,SSW,11.5,-,N/A,,Clear,200,2013-08-20 12:35:00
7:55 AM,68.2,66.6,95,29.97,7.0,SSW,11.5,17.3,N/A,,Clear,200,2013-08-20 12:55:00
8:15 AM,68.9,66.9,93,29.97,7.0,SSW,10.4,17.3,N/A,,Clear,210,2013-08-20 13:15:00
8:35 AM,69.8,67.1,91,29.97,7.0,SSW,13.8,17.3,N/A,,Clear,210,2013-08-20 13:35:00
8:55 AM,70.9,67.1,88,29.98,10.0,SSW,12.7,-,N/A,,Clear,210,2013-08-20 13:55:00
9:15 AM,72.0,67.5,86,29.98,10.0,SSW,12.7,17.3,N/A,,Clear,210,2013-08-20 14:15:00
9:35 AM,73.0,67.5,83,29.98,10.0,SSW,15.0,20.7,N/A,,Clear,210,2013-08-20 14:35:00
9:55 AM,74.3,67.3,79,29.98,10.0,SSW,11.5,-,N/A,,Clear,210,2013-08-20 14:55:00
10:15 AM,75.6,67.5,76,29.98,10.0,SSW,13.8,17.3,N/A,,Clear,210,2013-08-20 15:15:00
10:35 AM,76.6,67.8,74,29.98,10.0,SSW,11.5,17.3,N/A,,Clear,210,2013-08-20 15:35:00
10:55 AM,77.9,68.0,71,29.98,10.0,SSW,15.0,-,N/A,,Clear,210,2013-08-20 15:55:00
11:15 AM,78.8,67.8,69,29.99,10.0,SSW,11.5,19.6,N/A,,Clear,210,2013-08-20 16:15:00
11:55 AM,80.6,68.5,67,29.98,10.0,SSW,12.7,-,N/A,,Clear,210,2013-08-20 16:55:00
11:57 AM,80.6,68.0,65,29.99,10.0,SSW,12.7,-,N/A,,Clear,210,2013-08-20 16:57:00
12:15 PM,81.1,68.0,64,29.99,10.0,SW,11.5,-,N/A,,Clear,220,2013-08-20 17:15:00
12:35 PM,81.5,67.6,63,29.98,10.0,SW,10.4,-,N/A,,Clear,220,2013-08-20 17:35:00
12:55 PM,82.6,68.7,63,29.98,10.0,SSW,10.4,-,N/A,,Clear,210,2013-08-20 17:55:00
1:15 PM,83.3,68.7,61,29.97,10.0,SSW,9.2,16.1,N/A,,Clear,210,2013-08-20 18:15:00
1:35 PM,83.7,68.9,61,29.97,10.0,SSW,12.7,16.1,N/A,,Clear,200,2013-08-20 18:35:00
1:55 PM,83.8,68.7,60,29.97,10.0,SSW,12.7,18.4,N/A,,Clear,210,2013-08-20 18:55:00
2:15 PM,84.9,68.7,58,29.96,10.0,South,12.7,-,N/A,,Clear,190,2013-08-20 19:15:00
2:35 PM,85.3,69.3,59,29.96,10.0,South,12.7,-,N/A,,Clear,190,2013-08-20 19:35:00
2:55 PM,85.5,69.1,58,29.95,10.0,South,13.8,-,N/A,,Clear,190,2013-08-20 19:55:00
3:15 PM,85.6,68.5,56,29.95,10.0,SSW,11.5,-,N/A,,Clear,200,2013-08-20 20:15:00
3:35 PM,86.2,69.4,57,29.95,10.0,SSW,13.8,17.3,N/A,,Clear,200,2013-08-20 20:35:00
3:55 PM,86.0,68.5,56,29.94,10.0,SSW,12.7,-,N/A,,Clear,200,2013-08-20 20:55:00
4:15 PM,86.2,68.9,56,29.93,10.0,South,13.8,-,N/A,,Clear,190,2013-08-20 21:15:00
4:35 PM,86.2,70.2,59,29.93,10.0,SSW,8.1,-,N/A,,Clear,200,2013-08-20 21:35:00
4:55 PM,86.2,69.1,57,29.93,10.0,SSW,11.5,16.1,N/A,,Clear,200,2013-08-20 21:55:00
5:15 PM,86.9,69.6,56,29.93,10.0,South,10.4,-,N/A,,Clear,180,2013-08-20 22:15:00
5:35 PM,86.9,69.3,56,29.92,10.0,South,11.5,-,N/A,,Clear,190,2013-08-20 22:35:00
5:55 PM,86.9,70.0,57,29.92,10.0,South,11.5,16.1,N/A,,Clear,180,2013-08-20 22:55:00
6:15 PM,86.5,70.2,58,29.92,10.0,South,9.2,-,N/A,,Clear,180,2013-08-20 23:15:00
6:35 PM,86.0,69.8,58,29.92,10.0,South,9.2,-,N/A,,Clear,180,2013-08-20 23:35:00
6:55 PM,85.3,68.9,58,29.92,10.0,South,10.4,-,N/A,,Clear,170,2013-08-20 23:55:00
7:15 PM,84.6,68.9,59,29.92,10.0,South,8.1,-,N/A,,Clear,180,2013-08-21 00:15:00
7:35 PM,83.7,68.5,60,29.92,10.0,South,8.1,-,N/A,,Clear,170,2013-08-21 00:35:00
7:55 PM,81.7,69.8,67,29.92,10.0,South,6.9,-,N/A,,Clear,170,2013-08-21 00:55:00
8:15 PM,80.1,70.9,73,29.92,10.0,South,6.9,-,N/A,,Clear,170,2013-08-21 01:15:00
8:35 PM,78.4,71.2,78,29.93,10.0,SSE,4.6,-,N/A,,Clear,160,2013-08-21 01:35:00
8:55 PM,77.9,71.1,79,29.93,10.0,South,9.2,-,N/A,,Clear,170,2013-08-21 01:55:00
9:15 PM,77.9,70.7,78,29.93,10.0,South,10.4,-,N/A,,Clear,170,2013-08-21 02:15:00
9:35 PM,77.0,70.3,80,29.94,10.0,South,9.2,-,N/A,,Clear,170,2013-08-21 02:35:00
9:55 PM,77.0,69.8,78,29.95,10.0,South,9.2,-,N/A,,Clear,180,2013-08-21 02:55:00
10:15 PM,77.0,68.9,76,29.96,10.0,South,10.4,17.3,N/A,,Clear,180,2013-08-21 03:15:00
10:35 PM,77.0,68.4,75,29.96,10.0,South,12.7,19.6,N/A,,Clear,190,2013-08-21 03:35:00
10:55 PM,76.6,68.0,75,29.95,10.0,South,13.8,18.4,N/A,,Clear,190,2013-08-21 03:55:00
11:15 PM,76.1,67.5,74,29.95,10.0,South,13.8,18.4,N/A,,Clear,190,2013-08-21 04:15:00
11:35 PM,75.7,67.1,74,29.95,10.0,South,13.8,19.6,N/A,,Clear,190,2013-08-21 04:35:00
11:55 PM,75.2,67.1,76,29.95,10.0,South,12.7,18.4,N/A,,Clear,190,2013-08-21 04:55:00